Regional Weather Roundup
Issued by NWS Boston, MA

Current Version | Previous Version | Text Only | Print | Product List | Glossary Off
Versions: 1 2 3 4 5 6 7 8 9 10 11 12 13 14 15 16 17 18 19 20 21 22 23 24 25 26 27
000 ASUS41 KBOX 220010 RWRBOX REGIONAL WEATHER ROUNDUP NATIONAL WEATHER SERVICE TAUNTON MA 800 PM EDT FRI JUL 21 2017 NOTE: "FAIR" INDICATES FEW OR NO CLOUDS BELOW 12,000 FEET WITH NO SIGNIFICANT WEATHER AND/OR OBSTRUCTIONS TO VISIBILITY. MAZALL-220100- EASTERN MASSACHUSETTS CITY SKY/WX TMP DP RH WIND PRES REMARKS BOSTON PTCLDY 86 60 41 W14G25 29.78R 6HR MIN TEMP: 86; 6HR MAX TEMP: 91; BEVERLY CLEAR 83 64 52 W10 29.77R LAWRENCE CLEAR 86 62 44 W12 29.80R BEDFORD CLEAR 81 57 43 W7 29.79R BLUE HILL N/A 81 61 50 W14 29.82R NORWOOD CLEAR 83 63 50 W8 29.79R MARSHFIELD PTCLDY 84 64 51 CALM 29.78R PLYMOUTH PTCLDY 83 64 52 W8 29.81R TAUNTON CLOUDY 82 65 56 W5 29.80R NEW BEDFORD MOCLDY 80 69 69 W8 29.81R $$ MAZALL-220100- CAPE COD AND THE ISLANDS CITY SKY/WX TMP DP RH WIND PRES REMARKS FALMOUTH CLOUDY 77 70 78 W13 29.82S HYANNIS CLOUDY 80 69 69 W13 29.80R CHATHAM CLEAR 77 72 84 SW9G17 29.81S PROVINCETOWN CLEAR 75 69 81 SW13 29.79R NANTUCKET MOCLDY 73 70 90 SW13 29.83R MARTHAS VNYRD PTCLDY 78 69 73 W9 29.82S $$ MAZALL-220100- CENTRAL AND WESTERN MASSACHUSETTS CITY SKY/WX TMP DP RH WIND PRES REMARKS WORCESTER CLEAR 78 61 55 W9 29.86S 6HR MIN TEMP: 78; 6HR MAX TEMP: 85; FITCHBURG CLEAR 82 61 48 VRB3 29.82S ORANGE CLEAR 79 60 52 SW6 29.84R SPRINGFIELD MOCLDY 83 67 58 NW5 29.82S WESTFIELD CLEAR 83 69 62 NW5 29.83R NORTH ADAMS CLEAR 74 62 66 CALM 29.86S PITTSFIELD CLEAR 75 62 64 W3 29.89R $$ RIZALL-220100- RHODE ISLAND CITY SKY/WX TMP DP RH WIND PRES REMARKS PROVIDENCE MOCLDY 84 69 60 SW9 29.82R 6HR MIN TEMP: 84; 6HR MAX TEMP: 90; NEWPORT CLOUDY 79 70 74 S5 29.83R BLOCK ISLAND PTCLDY 77 69 76 SW10 29.84F WESTERLY MOCLDY 80 69 69 VRB5 29.84S $$ CTZALL-220100- CONNECTICUT CITY SKY/WX TMP DP RH WIND PRES REMARKS BRADLEY INTL CLOUDY 83 69 62 SW7 29.83S 6HR MIN TEMP: 83; 6HR MAX TEMP: 90; HARTFORD CLOUDY 86 68 54 SW3 29.82S BRIDGEPORT CLOUDY 85 69 58 SW6 29.83S DANBURY CLOUDY 82 68 62 SW3 29.87S GROTON CLOUDY 77 68 73 SW5 29.83S NEW HAVEN MOCLDY 84 67 56 SW5 29.83F CHESTER FAIR 81 72 74 CALM 29.85S MERIDEN CLOUDY 79 71 76 CALM 29.83S WILLIMANTIC CLOUDY 83 71 67 W3 29.83S OXFORD PTCLDY 81 64 57 CALM 29.87F $$ MEZ002-015-021-024-NHZ003-005-008-011-012-014-VTZ005-008-220100- NORTHERN NEW ENGLAND CITY SKY/WX TMP DP RH WIND PRES REMARKS PORTLAND ME MOCLDY 82 57 42 VRB5 29.75R 6HR MIN TEMP: 82; 6HR MAX TEMP: 87; BANGOR ME MOCLDY 80 60 50 SW5 29.71R CONCORD NH CLEAR 81 63 54 SW8 29.79S MANCHESTER NH PTCLDY 83 60 45 W6 29.78R NASHUA NH CLEAR 81 63 54 SW3 29.81R PORTSMOUTH NH MOCLDY 82 58 44 W7 29.76R JAFFREY NH CLEAR 79 63 57 VRB5 29.85S KEENE NH CLEAR 79 63 57 SW6 29.83S BURLINGTON VT MOCLDY 80 63 55 W10 29.82R MT. WASHINGTON MOCLDY 54 50 87 W52G63 N/A $$ NYZ052-076-220100- EASTERN NEW YORK CITY SKY/WX TMP DP RH WIND PRES REMARKS ALBANY PTCLDY 80 63 55 NW9 29.85R 6HR MIN TEMP: 79; 6HR MAX TEMP: 86; NEW YORK CITY MOCLDY 91 68 46 W12 29.84S HX 95 6HR MIN TEMP: 89; 6HR MAX TEMP: 94; $$ ANZALL-220100- MARINE OBSERVATIONS STATION/POSITION TIME TEMP WIND PRES VSBY WAVE AIR SEA DIR/SP/G HT/PER (UTC) (F) (DEG/KT/KT) (MB) (MI) (FT/S) BOSTON BUOY 2350 77 72 270/ 8/ 8 1007.8R 1/ 6 BUZZARDS BAY 0000 74 240/ 16/ 16 1010.1R NANTUCKET SOUND 2350 73 1009.0S 1/ 3 MASS BAY-STELLWA 2304 74 66 170/ 10/ 12 1007.2F 1/ 6 ISLE OF SHOALS 0000 80 310/ 8/ 9 1007.9R S OF BLOCK IS 2355 74 N/A 3/ 6 $$ ......................KEY......................... SKY/WX - SKY CONDITION/PRESENT WEATHER TMP - TEMPERATURE IN FAHRENHEIT DWPT - DEWPOINT IN FAHRENHEIT RH - RELATIVE HUMIDITY IN PERCENT WIND - DIRECTION AND SPEED IN MPH PRES - MEAN SEA LEVEL PRESSURE IN INCHES OF HG WCI - WIND CHILL INDEX VSB - VISIBILITY IN MILES HX - HEAT INDEX TC - TEMPERATURE IN CELSIUS VRB - VARIABLE WIND DIRECTION N/A - NOT AVAILABLE

USA.gov is the U.S. government's official web portal to all federal, state and local government web resources and services.